^^
Datos históricos de la estación: Murcia-Puente Tocinos
Diario Informe para Marzo 10, 2019 Unidades:  Inglés    Métrico   Ambas
Diario Semanal Mensual Anual Configurable
  Máximo: Mínimo: Media:
Temperatura: 80.2 °F 47.7 °F 62.8 °F
Punto de rocio: 50.5 °F 37.2 °F 42.3 °F
Humedad: 72% 27% 50%
Velocidad viento: 9.2mph 0mph 3.9mph
Racha viento: 16mph - -
Viento- - SSW
Presión: 30.4 in 30.2 in -
Precipitación: 0 in    
Historical Graphs
 
 
Tabla de datos para Marzo 10, 2019
Hora Temperatura Punto de rocio Presión Viento Velocidad viento Racha viento Humedad Intensidad lluvia(por hora) Nubes
00:04 55.2 °F 43.7 °F 30.4 in SW 3.1 mph 3.5 mph 65% 0 in CLR
00:09 55.2 °F 43.2 °F 30.4 in SW 2.4 mph 4.6 mph 64% 0 in CLR
00:14 55.2 °F 42.8 °F 30.4 in SE 2.4 mph 4.6 mph 63% 0 in CLR
00:19 55 °F 42.6 °F 30.4 in SSW 3.1 mph 4.6 mph 63% 0 in CLR
00:24 55 °F 42.3 °F 30.4 in SW 3.1 mph 4.6 mph 62% 0 in CLR
00:29 55 °F 42.3 °F 30.4 in SW 3.1 mph 3.5 mph 62% 0 in CLR
00:34 55 °F 41.7 °F 30.4 in SW 3.1 mph 3.5 mph 61% 0 in CLR
00:39 55 °F 41.7 °F 30.4 in SW 2.9 mph 4.6 mph 61% 0 in CLR
00:44 54.9 °F 41.2 °F 30.4 in SW 2.9 mph 6.9 mph 60% 0 in CLR
00:49 54.9 °F 40.8 °F 30.4 in South 3.6 mph 4.6 mph 59% 0 in CLR
00:54 54.7 °F 40.6 °F 30.4 in SSW 3.6 mph 6.9 mph 59% 0 in CLR
00:59 54.5 °F 40.8 °F 30.4 in SSW 4 mph 6.9 mph 60% 0 in CLR
01:04 54.1 °F 40.6 °F 30.4 in South 4 mph 6.9 mph 60% 0 in CLR
01:09 54 °F 40.8 °F 30.4 in South 4.7 mph 5.8 mph 61% 0 in CLR
01:14 53.8 °F 41.2 °F 30.4 in South 4.7 mph 5.8 mph 62% 0 in CLR
01:19 53.8 °F 41.5 °F 30.4 in WSW 4.3 mph 6.4 mph 63% 0 in CLR
01:24 53.8 °F 41.5 °F 30.4 in SSW 4.3 mph 4.6 mph 63% 0 in CLR
01:29 53.8 °F 41.5 °F 30.4 in WSW 4 mph 4.6 mph 63% 0 in CLR
01:34 53.8 °F 41.5 °F 30.4 in SW 4 mph 8.1 mph 63% 0 in CLR
01:39 53.8 °F 41.5 °F 30.4 in WSW 4 mph 4.6 mph 63% 0 in CLR
01:44 53.6 °F 41.7 °F 30.4 in WSW 4 mph 4.6 mph 64% 0 in CLR
01:49 53.4 °F 41.5 °F 30.4 in SSW 3.1 mph 6.9 mph 64% 0 in CLR
01:54 53.4 °F 41.5 °F 30.4 in SW 3.1 mph 6.9 mph 64% 0 in CLR
01:59 53.2 °F 41.7 °F 30.4 in WSW 4.7 mph 5.8 mph 65% 0 in CLR
02:04 53.2 °F 41.7 °F 30.4 in SW 4.7 mph 5.2 mph 65% 0 in CLR
02:09 53.1 °F 41.5 °F 30.4 in SSW 4 mph 4.6 mph 65% 0 in CLR
02:14 53.1 °F 41.5 °F 30.4 in SW 4 mph 4.6 mph 65% 0 in CLR
02:19 53.1 °F 41.5 °F 30.4 in SW 3.1 mph 2.4 mph 65% 0 in CLR
02:24 53.1 °F 41.5 °F 30.4 in SW 3.1 mph 3.5 mph 65% 0 in CLR
02:29 53.1 °F 41.5 °F 30.4 in SW 2 mph 3.5 mph 65% 0 in CLR
02:34 52.9 °F 41.4 °F 30.4 in SW 2 mph 4.6 mph 65% 0 in CLR
02:39 52.5 °F 41.2 °F 30.4 in SW 2.4 mph 3.5 mph 65% 0 in CLR
02:44 52.3 °F 40.5 °F 30.4 in SSW 2.4 mph 4.6 mph 64% 0 in CLR
02:49 52.3 °F 40.5 °F 30.4 in SW 2.4 mph 4.6 mph 64% 0 in CLR
02:54 52.3 °F 39.7 °F 30.4 in SW 2.4 mph 6.2 mph 62% 0 in CLR
02:59 52.3 °F 39.7 °F 30.4 in SW 3.6 mph 5.8 mph 62% 0 in CLR
03:04 52.3 °F 39.4 °F 30.4 in WSW 3.6 mph 6.9 mph 61% 0 in CLR
03:09 52.3 °F 39.7 °F 30.4 in SW 4.3 mph 9.2 mph 62% 0 in CLR
03:14 52.2 °F 39.6 °F 30.4 in SW 4.3 mph 5.8 mph 62% 0 in CLR
03:19 52.2 °F 39.6 °F 30.4 in SSW 4.7 mph 5.8 mph 62% 0 in CLR
03:24 52.2 °F 39 °F 30.4 in SW 4.7 mph 6.9 mph 61% 0 in CLR
03:29 52 °F 38.5 °F 30.4 in SSW 5.2 mph 6.9 mph 60% 0 in CLR
03:34 52 °F 38.5 °F 30.4 in SSW 5.2 mph 6.9 mph 60% 0 in CLR
03:39 51.6 °F 38.1 °F 30.4 in SSW 4.7 mph 5.8 mph 60% 0 in CLR
03:44 51.6 °F 38.1 °F 30.4 in South 4.7 mph 5.4 mph 60% 0 in CLR
03:49 51.4 °F 38.5 °F 30.4 in SSW 4.3 mph 6.2 mph 61% 0 in CLR
03:54 51.3 °F 38.3 °F 30.4 in South 4.3 mph 7.6 mph 61% 0 in CLR
03:59 51.1 °F 38.1 °F 30.4 in SSW 4.7 mph 5.8 mph 61% 0 in CLR
04:04 50.9 °F 37.9 °F 30.4 in SSW 4.7 mph 5.8 mph 61% 0 in CLR
04:09 50.9 °F 37.9 °F 30.4 in SW 4.7 mph 6.2 mph 61% 0 in CLR
04:14 50.9 °F 37.9 °F 30.4 in SW 4.7 mph 6.9 mph 61% 0 in CLR
04:19 50.9 °F 37.9 °F 30.4 in SW 4.3 mph 5.8 mph 61% 0 in CLR
04:24 51.1 °F 38.1 °F 30.4 in SSW 4.3 mph 6.9 mph 61% 0 in CLR
04:29 51.1 °F 38.1 °F 30.4 in SW 4.3 mph 3.5 mph 61% 0 in CLR
04:34 51.1 °F 38.1 °F 30.4 in SW 4.3 mph 4.6 mph 61% 0 in CLR
04:39 51.1 °F 38.1 °F 30.4 in WSW 2.9 mph 4.6 mph 61% 0 in CLR
04:44 50.9 °F 37.9 °F 30.4 in WSW 2.9 mph 4.6 mph 61% 0 in CLR
04:49 50.7 °F 37.8 °F 30.4 in WSW 2.9 mph 5.2 mph 61% 0 in CLR
04:54 50.7 °F 37.8 °F 30.4 in WSW 2.9 mph 6.9 mph 61% 0 in CLR
04:59 50.7 °F 37.8 °F 30.4 in WSW 4 mph 5.8 mph 61% 0 in CLR
05:04 50.7 °F 37.8 °F 30.4 in WSW 4 mph 8.1 mph 61% 0 in CLR
05:09 50.7 °F 37.8 °F 30.4 in WSW 4.7 mph 4.6 mph 61% 0 in CLR
05:14 50.7 °F 37.8 °F 30.4 in WSW 4.7 mph 4.6 mph 61% 0 in CLR
05:19 50.7 °F 37.8 °F 30.4 in WSW 2.4 mph 4.6 mph 61% 0 in CLR
05:24 50.7 °F 37.8 °F 30.4 in South 2.4 mph 3.5 mph 61% 0 in CLR
05:29 50.5 °F 38.5 °F 30.4 in South 2 mph 2 mph 63% 0 in CLR
05:34 50.4 °F 38.1 °F 30.4 in South 2 mph 2.9 mph 63% 0 in CLR
05:39 50.4 °F 38.7 °F 30.4 in South 1.8 mph 3.5 mph 64% 0 in CLR
05:44 50.2 °F 38.5 °F 30.4 in South 1.8 mph 4.6 mph 64% 0 in CLR
05:49 49.8 °F 38.1 °F 30.4 in SSE 2.9 mph 4.6 mph 64% 0 in CLR
05:54 49.6 °F 38.3 °F 30.4 in SSE 2.9 mph 3.6 mph 65% 0 in CLR
05:59 49.5 °F 38.1 °F 30.4 in South 2.9 mph 4.6 mph 65% 0 in CLR
06:04 49.5 °F 38.7 °F 30.4 in South 2.9 mph 4.6 mph 66% 0 in CLR
06:09 49.3 °F 38.5 °F 30.4 in South 2.4 mph 3.1 mph 66% 0 in CLR
06:14 49.3 °F 38.5 °F 30.4 in South 2.4 mph 3.5 mph 66% 0 in CLR
06:19 49.3 °F 38.8 °F 30.4 in South 2.4 mph 4.6 mph 67% 0 in CLR
06:24 48.9 °F 38.5 °F 30.4 in SSE 2.4 mph 4.6 mph 67% 0 in CLR
06:29 48.7 °F 38.7 °F 30.4 in SSE 3.6 mph 5.8 mph 68% 0 in CLR
06:34 48.4 °F 38.7 °F 30.4 in SSE 3.6 mph 6.9 mph 69% 0 in CLR
06:39 48 °F 38.3 °F 30.4 in SSE 4.7 mph 6.9 mph 69% 0 in CLR
06:44 47.8 °F 38.5 °F 30.4 in SE 4.7 mph 5.4 mph 70% 0 in CLR
06:49 47.7 °F 38.5 °F 30.4 in South 4.7 mph 6.9 mph 70% 0 in CLR
06:54 47.8 °F 38.1 °F 30.4 in South 4.7 mph 6.9 mph 69% 0 in CLR
06:59 47.8 °F 38.1 °F 30.4 in SSW 5.2 mph 5.9 mph 69% 0 in CLR
07:04 48 °F 37.9 °F 30.4 in SSW 5.2 mph 5.9 mph 68% 0 in CLR
07:09 48.2 °F 37.8 °F 30.4 in SW 4.7 mph 5.8 mph 67% 0 in CLR
07:14 48.6 °F 38.1 °F 30.4 in SW 4.7 mph 5.2 mph 67% 0 in CLR
07:19 48.7 °F 37.9 °F 30.4 in WSW 3.6 mph 6.9 mph 66% 0 in CLR
07:24 48.7 °F 37.6 °F 30.4 in SSW 3.6 mph 4.6 mph 65% 0 in CLR
07:29 48.9 °F 37.8 °F 30.4 in WSW 3.6 mph 5.9 mph 65% 0 in CLR
07:34 48.9 °F 37.2 °F 30.4 in SW 3.6 mph 4.6 mph 64% 0 in CLR
07:39 48.9 °F 37.2 °F 30.4 in SW 4 mph 4.6 mph 64% 0 in CLR
07:44 49.1 °F 37.4 °F 30.4 in SSW 4 mph 5.8 mph 64% 0 in CLR
07:49 49.3 °F 37.2 °F 30.4 in SW 3.1 mph 6.9 mph 63% 0 in CLR
07:54 49.5 °F 37.4 °F 30.4 in WSW 3.1 mph 6.9 mph 63% 0 in CLR
07:59 49.6 °F 37.6 °F 30.4 in SW 4.7 mph 6.9 mph 63% 0 in CLR
08:04 50 °F 37.6 °F 30.4 in WSW 4.7 mph 6.9 mph 62% 0 in CLR
08:09 50.2 °F 37.8 °F 30.4 in South 4.3 mph 4.6 mph 62% 0 in CLR
08:14 50.4 °F 37.8 °F 30.4 in SSW 4.3 mph 4.6 mph 62% 0 in CLR
08:19 50.5 °F 37.9 °F 30.4 in SSW 3.1 mph 4.6 mph 62% 0 in CLR
08:24 50.7 °F 38.7 °F 30.4 in South 3.1 mph 5.2 mph 63% 0 in CLR
08:29 50.9 °F 38.3 °F 30.4 in SW 3.1 mph 5.2 mph 62% 0 in CLR
08:34 51.1 °F 38.5 °F 30.4 in SW 3.1 mph 6.9 mph 62% 0 in CLR
08:39 51.3 °F 38.7 °F 30.4 in SW 4.3 mph 6.2 mph 62% 0 in CLR
08:44 51.4 °F 38.8 °F 30.4 in SW 4.3 mph 4.6 mph 62% 0 in CLR
08:49 51.6 °F 38.1 °F 30.4 in SW 4.3 mph 8.1 mph 60% 0 in CLR
08:54 52 °F 38.5 °F 30.4 in SW 4.3 mph 5.8 mph 60% 0 in CLR
08:59 52.2 °F 38.3 °F 30.4 in SW 4.7 mph 5.2 mph 59% 0 in CLR
09:04 52.3 °F 38.5 °F 30.4 in WSW 4.7 mph 4.6 mph 59% 0 in CLR
09:09 52.9 °F 38.5 °F 30.4 in SW 4 mph 5.8 mph 58% 0 in CLR
09:14 53.4 °F 38.7 °F 30.4 in SSW 4 mph 4.7 mph 57% 0 in CLR
09:19 54 °F 38.1 °F 30.4 in SSW 3.6 mph 6.9 mph 55% 0 in CLR
09:24 54.3 °F 38.5 °F 30.4 in SW 3.6 mph 5.8 mph 55% 0 in CLR
09:29 55 °F 38.1 °F 30.4 in SW 4.3 mph 4.6 mph 53% 0 in CLR
09:34 55.6 °F 38.1 °F 30.4 in WSW 4.3 mph 4.6 mph 52% 0 in CLR
09:39 56.3 °F 37.9 °F 30.4 in WSW 2.9 mph 5.8 mph 50% 0 in CLR
09:44 56.7 °F 38.1 °F 30.4 in WSW 2.9 mph 4.6 mph 50% 0 in CLR
09:49 56.8 °F 38.5 °F 30.4 in West 3.6 mph 4.6 mph 50% 0 in CLR
09:54 57.4 °F 38.5 °F 30.4 in SW 3.6 mph 4.6 mph 49% 0 in CLR
09:59 57.7 °F 38.7 °F 30.4 in WSW 3.1 mph 4.6 mph 49% 0 in CLR
10:04 58.1 °F 38.5 °F 30.4 in WNW 3.1 mph 4.6 mph 48% 0 in CLR
10:09 58.6 °F 38.5 °F 30.4 in SW 2.9 mph 5.8 mph 47% 0 in CLR
10:14 59.2 °F 38.8 °F 30.4 in SW 2.9 mph 4.7 mph 47% 0 in CLR
10:19 59.4 °F 39 °F 30.4 in SW 3.1 mph 4.6 mph 47% 0 in CLR
10:24 60.3 °F 39.4 °F 30.4 in SE 3.1 mph 3.5 mph 46% 0 in CLR
10:29 61.2 °F 39.6 °F 30.4 in SSW 2.4 mph 4.6 mph 45% 0 in CLR
10:34 61.9 °F 39.7 °F 30.4 in SSW 2.4 mph 4.6 mph 44% 0 in CLR
10:39 62.2 °F 39.9 °F 30.4 in SSW 3.1 mph 5.9 mph 44% 0 in CLR
10:44 62.8 °F 39.9 °F 30.4 in West 3.1 mph 6.9 mph 43% 0 in CLR
10:49 63 °F 39.6 °F 30.4 in SW 4.3 mph 6.9 mph 42% 0 in CLR
10:54 63.7 °F 40.1 °F 30.4 in SW 4.3 mph 6.9 mph 42% 0 in CLR
10:59 64.2 °F 39.9 °F 30.4 in SW 5.2 mph 6.4 mph 41% 0 in CLR
11:04 64.9 °F 39.9 °F 30.4 in SSW 5.2 mph 8.1 mph 40% 0 in CLR
11:09 65.5 °F 39.9 °F 30.4 in South 5.2 mph 8.1 mph 39% 0 in CLR
11:14 66 °F 40.3 °F 30.4 in SSW 5.2 mph 9.2 mph 39% 0 in CLR
11:19 66.6 °F 40.1 °F 30.3 in SW 5.2 mph 6.9 mph 38% 0 in CLR
11:24 66.9 °F 39.7 °F 30.3 in SSE 5.2 mph 6.9 mph 37% 0 in CLR
11:29 67.6 °F 40.5 °F 30.3 in South 4 mph 7.6 mph 37% 0 in CLR
11:34 68.4 °F 40.5 °F 30.3 in SSW 4 mph 5.8 mph 36% 0 in CLR
11:39 68.5 °F 40.5 °F 30.3 in SW 4.7 mph 6.9 mph 36% 0 in CLR
11:44 68.9 °F 40.8 °F 30.3 in SSW 4.7 mph 4.6 mph 36% 0 in CLR
11:49 69.4 °F 40.6 °F 30.3 in SSW 4.3 mph 5.9 mph 35% 0 in CLR
11:54 70 °F 40.3 °F 30.3 in SSW 4.3 mph 8.1 mph 34% 0 in CLR
12:00 70.2 °F 40.5 °F 30.3 in South 5 mph 7 mph 34% 0 in CLR
12:05 70.7 °F 40.8 °F 30.3 in SW 4.7 mph 8.1 mph 34% 0 in CLR
12:09 70.9 °F 41.2 °F 30.3 in West 4.7 mph 8.1 mph 34% 0 in CLR
12:14 70.9 °F 41.2 °F 30.3 in NW 4.7 mph 5.8 mph 34% 0 in CLR
12:19 71.4 °F 41.5 °F 30.3 in SW 3.6 mph 8.1 mph 34% 0 in CLR
12:24 72 °F 42.1 °F 30.3 in WSW 3.6 mph 5.8 mph 34% 0 in CLR
12:29 72.5 °F 41.7 °F 30.3 in West 3.1 mph 8.1 mph 33% 0 in CLR
12:34 72.5 °F 41.7 °F 30.3 in WSW 3.1 mph 8.1 mph 33% 0 in CLR
12:39 72.9 °F 42.1 °F 30.3 in WNW 4 mph 6.9 mph 33% 0 in CLR
12:44 73.2 °F 42.4 °F 30.3 in South 4 mph 4.7 mph 33% 0 in CLR
12:49 73.8 °F 42.1 °F 30.3 in SE 4.3 mph 5.8 mph 32% 0 in CLR
12:54 73.9 °F 42.3 °F 30.3 in NW 4.3 mph 3.6 mph 32% 0 in CLR
12:59 74.1 °F 42.4 °F 30.3 in West 3.6 mph 6.9 mph 32% 0 in CLR
13:04 73.9 °F 42.3 °F 30.3 in WNW 3.6 mph 4.6 mph 32% 0 in CLR
13:10 74.1 °F 42.3 °F 30.3 in SW 5 mph 10 mph 32% 0 in CLR
13:14 74.3 °F 42.4 °F 30.3 in SW 4.7 mph 4.6 mph 32% 0 in CLR
13:19 74.8 °F 43 °F 30.3 in South 3.6 mph 9.2 mph 32% 0 in CLR
13:24 75.4 °F 42.6 °F 30.3 in SE 3.6 mph 5.8 mph 31% 0 in CLR
13:29 75.6 °F 42.8 °F 30.3 in SW 4.7 mph 6.9 mph 31% 0 in CLR
13:34 75.6 °F 42.8 °F 30.3 in WSW 4.7 mph 8.1 mph 31% 0 in CLR
13:39 75.7 °F 43 °F 30.3 in SW 4.7 mph 6.9 mph 31% 0 in CLR
13:44 75.9 °F 43.2 °F 30.3 in WSW 4.7 mph 5.8 mph 31% 0 in CLR
13:49 76.3 °F 42.6 °F 30.3 in West 5.2 mph 9.2 mph 30% 0 in CLR
13:54 76.5 °F 42.6 °F 30.3 in NW 5.2 mph 8.1 mph 30% 0 in CLR
13:59 76.6 °F 43 °F 30.3 in WNW 5.4 mph 8.1 mph 30% 0 in CLR
14:04 76.6 °F 43 °F 30.3 in NW 5.4 mph 5.2 mph 30% 0 in CLR
14:09 77.2 °F 44.2 °F 30.3 in ENE 3.1 mph 5.8 mph 31% 0 in CLR
14:15 77.4 °F 43.5 °F 30.3 in NW 3 mph 10 mph 30% 0 in CLR
14:19 77.2 °F 43.3 °F 30.3 in SW 4 mph 6.9 mph 30% 0 in CLR
14:24 77.4 °F 43.5 °F 30.3 in West 4 mph 7.4 mph 30% 0 in CLR
14:29 77.5 °F 42.8 °F 30.3 in WNW 4.3 mph 4.6 mph 29% 0 in CLR
14:34 77.7 °F 43 °F 30.2 in SW 4.3 mph 5.8 mph 29% 0 in CLR
14:39 78.3 °F 43.3 °F 30.2 in South 3.6 mph 6.9 mph 29% 0 in CLR
14:45 78.4 °F 43.5 °F 30.2 in WSW 3 mph 11 mph 29% 0 in CLR
14:49 78.3 °F 43.3 °F 30.2 in SW 5.2 mph 10.4 mph 29% 0 in CLR
14:54 78.3 °F 42.4 °F 30.2 in WSW 5.2 mph 3.5 mph 28% 0 in CLR
14:59 78.6 °F 42.8 °F 30.2 in SSW 4 mph 9.7 mph 28% 0 in CLR
15:05 78.6 °F 42.8 °F 30.2 in SSW 5 mph 12 mph 28% 0 in CLR
15:09 78.4 °F 42.6 °F 30.2 in ENE 6.4 mph 6.2 mph 28% 0 in CLR
15:14 78.6 °F 42.8 °F 30.2 in SE 6.4 mph 8.1 mph 28% 0 in CLR
15:19 78.6 °F 42.8 °F 30.2 in SE 5.4 mph 9.2 mph 28% 0 in CLR
15:24 78.8 °F 43 °F 30.2 in SSW 5.4 mph 8.7 mph 28% 0 in CLR
15:30 78.6 °F 42.8 °F 30.2 in South 6.4 mph 9.2 mph 28% 0 in CLR
15:34 78.8 °F 43 °F 30.2 in ESE 6.4 mph 6.9 mph 28% 0 in CLR
15:39 79.2 °F 43.2 °F 30.2 in SSW 4.7 mph 5.8 mph 28% 0 in CLR
15:44 79.5 °F 42.6 °F 30.2 in SSW 4.7 mph 8.5 mph 27% 0 in CLR
15:50 79.5 °F 42.6 °F 30.2 in SE 4.7 mph 5.8 mph 27% 0 in CLR
15:54 79.2 °F 42.3 °F 30.2 in ESE 4.7 mph 8.1 mph 27% 0 in CLR
15:59 79.3 °F 43.3 °F 30.2 in SSE 5.4 mph 6.9 mph 28% 0 in CLR
16:05 79.7 °F 42.8 °F 30.2 in SSE 5.4 mph 2.3 mph 27% 0 in CLR
16:09 80.2 °F 43.2 °F 30.2 in WSW 4 mph 8.7 mph 27% 0 in CLR
16:14 80.1 °F 43.2 °F 30.2 in SSW 4 mph 9.2 mph 27% 0 in CLR
16:19 80.1 °F 43.2 °F 30.2 in WSW 5.9 mph 8.1 mph 27% 0 in CLR
16:25 79.9 °F 43 °F 30.2 in SSW 6 mph 8 mph 27% 0 in CLR
16:29 79.7 °F 44.6 °F 30.2 in South 5.4 mph 11.5 mph 29% 0 in CLR
16:34 79.3 °F 45.1 °F 30.2 in ESE 5.4 mph 11.4 mph 30% 0 in CLR
16:40 79.2 °F 45 °F 30.2 in East 6.9 mph 12.7 mph 30% 0 in CLR
16:45 78.8 °F 44.8 °F 30.2 in SE 6.9 mph 15 mph 30% 0 in CLR
16:49 78.4 °F 44.4 °F 30.2 in ESE 8.7 mph 15 mph 30% 0 in CLR
16:55 78.3 °F 45.1 °F 30.2 in SE 9 mph 16 mph 31% 0 in CLR
16:59 78.3 °F 45.1 °F 30.2 in SSE 9.2 mph 13.8 mph 31% 0 in CLR
17:04 77.9 °F 44.8 °F 30.2 in East 9.2 mph 11.5 mph 31% 0 in CLR
17:09 77.7 °F 44.8 °F 30.2 in SE 9.2 mph 10.4 mph 31% 0 in CLR
17:15 77.7 °F 44.8 °F 30.2 in SSE 9 mph 14 mph 31% 0 in CLR
17:20 78.3 °F 45.1 °F 30.2 in ESE 7.6 mph 8.1 mph 31% 0 in CLR
17:24 78.3 °F 44.2 °F 30.2 in ESE 7.6 mph 11.5 mph 30% 0 in CLR
17:29 78.1 °F 45 °F 30.2 in South 6.9 mph 9.2 mph 31% 0 in CLR
17:35 77.7 °F 44.8 °F 30.2 in SE 6.9 mph 11.5 mph 31% 0 in CLR
17:40 77.4 °F 45.1 °F 30.2 in SSE 6.9 mph 9.2 mph 32% 0 in CLR
17:45 76.8 °F 44.8 °F 30.2 in ESE 7 mph 13 mph 32% 0 in CLR
17:50 76.5 °F 44.4 °F 30.2 in ESE 7.4 mph 10.4 mph 32% 0 in CLR
17:55 76.3 °F 44.2 °F 30.2 in ESE 7 mph 12 mph 32% 0 in CLR
17:59 76.1 °F 44.1 °F 30.2 in East 6.4 mph 10.4 mph 32% 0 in CLR
18:05 75.9 °F 43.9 °F 30.2 in ESE 7 mph 10 mph 32% 0 in CLR
18:09 75.7 °F 44.6 °F 30.2 in SE 6.4 mph 11.5 mph 33% 0 in CLR
18:15 75.4 °F 44.2 °F 30.2 in ESE 7 mph 13 mph 33% 0 in CLR
18:20 75.2 °F 44.1 °F 30.2 in ESE 7 mph 12 mph 33% 0 in CLR
18:25 75.2 °F 44.1 °F 30.2 in South 7.4 mph 4.6 mph 33% 0 in CLR
18:29 75.4 °F 44.2 °F 30.2 in South 4 mph 3.5 mph 33% 0 in CLR
18:34 75.6 °F 44.4 °F 30.2 in South 4 mph 4.6 mph 33% 0 in CLR
18:40 75.6 °F 44.4 °F 30.2 in South 2 mph 5 mph 33% 0 in CLR
18:45 75.6 °F 44.4 °F 30.2 in South 2 mph 2 mph 33% 0 in CLR
18:49 75.6 °F 44.4 °F 30.2 in WSW 1.4 mph 3.5 mph 33% 0 in CLR
18:55 75.2 °F 44.1 °F 30.2 in SW 1 mph 5 mph 33% 0 in CLR
18:59 74.7 °F 44.4 °F 30.2 in NNE 2.9 mph 3.5 mph 34% 0 in CLR
19:04 74.1 °F 44.8 °F 30.2 in NNE 2.9 mph 3.1 mph 35% 0 in CLR
19:09 73.8 °F 44.4 °F 30.2 in NNW 2 mph 4.7 mph 35% 0 in CLR
19:15 73.2 °F 44.8 °F 30.2 in NNW 2 mph 4.6 mph 36% 0 in CLR
19:19 72.7 °F 44.2 °F 30.2 in North 3.1 mph 4.6 mph 36% 0 in CLR
19:25 72.1 °F 43.9 °F 30.2 in North 3 mph 5 mph 36% 0 in CLR
19:30 72 °F 44.2 °F 30.2 in NE 2.9 mph 3.5 mph 37% 0 in CLR
19:35 71.8 °F 44.1 °F 30.2 in NW 2.9 mph 4.6 mph 37% 0 in CLR
19:39 71.4 °F 43.9 °F 30.2 in NW 2.4 mph 3.5 mph 37% 0 in CLR
19:45 71.2 °F 44.4 °F 30.2 in NW 2 mph 4 mph 38% 0 in CLR
19:50 71.1 °F 44.2 °F 30.2 in NW 2.4 mph 3.5 mph 38% 0 in CLR
19:55 70.7 °F 44.4 °F 30.2 in NW 2.4 mph 3.5 mph 39% 0 in CLR
19:59 70.3 °F 45 °F 30.2 in NW 1.8 mph 4.6 mph 40% 0 in CLR
20:05 70 °F 45.1 °F 30.2 in NW 2 mph 5 mph 41% 0 in CLR
20:09 69.6 °F 45 °F 30.2 in NW 1.8 mph 3.5 mph 41% 0 in CLR
20:15 69.3 °F 45.9 °F 30.2 in NW 2 mph 6 mph 43% 0 in CLR
20:19 68.7 °F 45.9 °F 30.2 in NNE 2.4 mph 4.6 mph 44% 0 in CLR
20:25 68 °F 45.1 °F 30.2 in North 2 mph 8 mph 44% 0 in CLR
20:30 67.3 °F 46.4 °F 30.2 in East 4.7 mph 9.2 mph 47% 0 in CLR
20:35 66.7 °F 46.4 °F 30.2 in NNE 4.7 mph 8.1 mph 48% 0 in CLR
20:40 66 °F 46.9 °F 30.2 in NNE 6 mph 12 mph 50% 0 in CLR
20:45 65.5 °F 47.5 °F 30.2 in NNE 5.9 mph 6.9 mph 52% 0 in CLR
20:50 64.9 °F 48 °F 30.2 in NNE 6 mph 7 mph 54% 0 in CLR
20:54 64.8 °F 48.2 °F 30.2 in North 5.9 mph 4.6 mph 55% 0 in CLR
21:00 64.4 °F 48.4 °F 30.2 in North 3 mph 6 mph 56% 0 in CLR
21:05 64 °F 48.9 °F 30.2 in North 3 mph 6 mph 58% 0 in CLR
21:10 63.7 °F 49.1 °F 30.2 in NNE 3 mph 7 mph 59% 0 in CLR
21:15 63.3 °F 49.3 °F 30.2 in NNE 3 mph 8 mph 60% 0 in CLR
21:20 63.3 °F 49.3 °F 30.3 in North 5 mph 6 mph 60% 0 in CLR
21:25 63.1 °F 48.9 °F 30.3 in NNW 5 mph 8 mph 60% 0 in CLR
21:30 63 °F 48.9 °F 30.3 in NW 2.9 mph 3.5 mph 60% 0 in CLR
21:35 63 °F 49.3 °F 30.3 in NW 2 mph 6 mph 61% 0 in CLR
21:39 62.8 °F 49.6 °F 30.3 in NNE 2.4 mph 4.7 mph 62% 0 in CLR
21:45 62.4 °F 49.3 °F 30.3 in NNE 2 mph 5 mph 62% 0 in CLR
21:49 62.4 °F 49.6 °F 30.3 in NW 2.4 mph 3.5 mph 63% 0 in CLR
21:55 62.2 °F 49.5 °F 30.3 in NW 2 mph 5 mph 63% 0 in CLR
22:00 62.1 °F 49.3 °F 30.3 in NW 2 mph 5 mph 63% 0 in CLR
22:05 61.9 °F 49.6 °F 30.3 in NW 2 mph 5 mph 64% 0 in CLR
22:10 61.7 °F 49.8 °F 30.3 in NW 2 mph 5 mph 65% 0 in CLR
22:15 61.5 °F 49.6 °F 30.3 in NW 2 mph   65% 0 in CLR
22:19 61.5 °F 50.2 °F 30.3 in NW 1.4 mph 2.3 mph 66% 0 in CLR
22:25 61.3 °F 49.8 °F 30.3 in NW 1 mph 4 mph 66% 0 in CLR
22:30 61.3 °F 49.8 °F 30.3 in NW 1.8 mph   66% 0 in CLR
22:35 61.3 °F 50.4 °F 30.3 in NW 2 mph 2 mph 67% 0 in CLR
22:39 61.2 °F 50.2 °F 30.3 in Calm   2.3 mph 67% 0 in CLR
22:45 61 °F 50 °F 30.3 in Calm   2 mph 67% 0 in CLR
22:50 61 °F 49.8 °F 30.3 in Calm     67% 0 in CLR
22:55 60.8 °F 49.8 °F 30.3 in Calm     67% 0 in CLR
22:59 60.6 °F 50 °F 30.3 in Calm   2.3 mph 68% 0 in CLR
23:05 60.6 °F 50 °F 30.3 in Calm     68% 0 in CLR
23:10 60.6 °F 50 °F 30.3 in Calm     68% 0 in CLR
23:15 60.4 °F 49.8 °F 30.3 in Calm     68% 0 in CLR
23:20 60.4 °F 50.2 °F 30.3 in Calm   3 mph 69% 0 in CLR
23:25 60.3 °F 50.5 °F 30.3 in Calm   5 mph 70% 0 in CLR
23:30 60.3 °F 50.4 °F 30.3 in NW 1.8 mph   70% 0 in CLR
23:35 60.1 °F 50.4 °F 30.3 in NW 2 mph   70% 0 in CLR
23:39 59.9 °F 50.5 °F 30.3 in Calm     71% 0 in CLR
23:45 59.7 °F 50.4 °F 30.3 in Calm   1 mph 71% 0 in CLR
23:50 59.5 °F 50.5 °F 30.3 in Calm   1 mph 72% 0 in CLR
23:55 59.4 °F 50.4 °F 30.3 in Calm   2.4 mph 72% 0 in CLR
Murcia-Puente Tocinos, España
Compliments of Weather Underground - 2.75 mb

La estación de MeteoMurcia.com, publica sus datos en los siguientes proyectos:

Weather Underground PWS IMURCIAP2 Meteoclimatic www.awekas.at

W3Counter
Web Analytics